Time,TemperatureF,DewpointF,PressureIn,WindDirection,WindDirectionDegrees,WindSpeedMPH,WindSpeedGustMPH,Humidity,HourlyPrecipIn,Conditions,Clouds,dailyrainin,SoftwareType,DateUTC
2013-11-13 00:11:00,26.6,23.0,30.59,NNW,329,1.0,2.0,85,0.00,,,0.03,weatherlink.com 1.10,2013-11-13 05:11:00,
2013-11-13 00:26:00,26.1,22.0,30.59,NNW,329,0.0,1.0,85,0.00,,,0.03,weatherlink.com 1.10,2013-11-13 05:26:00,
2013-11-13 00:41:00,25.2,22.0,30.59,NNW,329,0.0,0.0,86,0.00,,,0.03,weatherlink.com 1.10,2013-11-13 05:41:00,
2013-11-13 00:56:00,24.4,21.0,30.58,NNW,329,0.0,0.0,87,0.00,,,0.03,weatherlink.com 1.10,2013-11-13 05:56:00,
2013-11-13 01:11:00,23.8,21.0,30.59,NNW,329,0.0,0.0,88,0.00,,,0.03,weatherlink.com 1.10,2013-11-13 06:11:00,
2013-11-13 01:26:00,23.0,20.0,30.58,NNW,329,0.0,0.0,88,0.00,,,0.03,weatherlink.com 1.10,2013-11-13 06:26:00,
2013-11-13 01:41:00,22.7,20.0,30.58,NNW,329,0.0,0.0,90,0.00,,,0.03,weatherlink.com 1.10,2013-11-13 06:41:00,
2013-11-13 01:56:00,23.1,21.0,30.59,NNW,329,0.0,0.0,90,0.00,,,0.03,weatherlink.com 1.10,2013-11-13 06:56:00,
2013-11-13 02:11:00,22.9,21.0,30.59,NNW,329,0.0,0.0,91,0.00,,,0.03,weatherlink.com 1.10,2013-11-13 07:11:00,
2013-11-13 02:26:00,22.9,21.0,30.60,NNW,329,0.0,0.0,91,0.00,,,0.03,weatherlink.com 1.10,2013-11-13 07:26:00,
2013-11-13 02:41:00,22.3,20.0,30.60,NNW,329,0.0,0.0,91,0.00,,,0.03,weatherlink.com 1.10,2013-11-13 07:41:00,
2013-11-13 02:56:00,21.7,20.0,30.60,NNW,329,0.0,0.0,91,0.00,,,0.03,weatherlink.com 1.10,2013-11-13 07:56:00,
2013-11-13 03:11:00,21.3,19.0,30.60,NNW,329,0.0,0.0,91,0.00,,,0.03,weatherlink.com 1.10,2013-11-13 08:11:00,
2013-11-13 03:26:00,21.0,19.0,30.60,NNW,329,0.0,0.0,91,0.00,,,0.03,weatherlink.com 1.10,2013-11-13 08:26:00,
2013-11-13 03:41:00,20.8,19.0,30.60,NNW,329,0.0,0.0,92,0.00,,,0.03,weatherlink.com 1.10,2013-11-13 08:41:00,
2013-11-13 03:56:00,20.6,19.0,30.60,NNW,329,0.0,0.0,92,0.00,,,0.03,weatherlink.com 1.10,2013-11-13 08:56:00,
2013-11-13 04:11:00,20.6,19.0,30.60,NNW,329,0.0,0.0,92,0.00,,,0.03,weatherlink.com 1.10,2013-11-13 09:11:00,
2013-11-13 04:26:00,20.5,19.0,30.60,NNW,329,0.0,0.0,92,0.00,,,0.03,weatherlink.com 1.10,2013-11-13 09:26:00,
2013-11-13 04:41:00,20.3,18.0,30.60,NNW,329,0.0,0.0,92,0.00,,,0.03,weatherlink.com 1.10,2013-11-13 09:41:00,
2013-11-13 04:56:00,20.1,18.0,30.60,NNW,329,0.0,0.0,92,0.00,,,0.03,weatherlink.com 1.10,2013-11-13 09:56:00,
2013-11-13 05:11:00,20.0,18.0,30.61,NNW,329,0.0,0.0,92,0.00,,,0.03,weatherlink.com 1.10,2013-11-13 10:11:00,
2013-11-13 05:26:00,19.9,18.0,30.60,NNW,329,0.0,0.0,92,0.00,,,0.03,weatherlink.com 1.10,2013-11-13 10:26:00,
2013-11-13 05:41:00,19.9,18.0,30.61,NNW,329,0.0,0.0,92,0.00,,,0.03,weatherlink.com 1.10,2013-11-13 10:41:00,
2013-11-13 05:56:00,19.7,18.0,30.61,NNW,329,0.0,0.0,92,0.00,,,0.03,weatherlink.com 1.10,2013-11-13 10:56:00,
2013-11-13 06:12:00,19.4,18.0,30.61,NNW,329,0.0,0.0,92,0.00,,,0.03,weatherlink.com 1.10,2013-11-13 11:12:00,
2013-11-13 06:27:00,19.4,18.0,30.61,NNW,329,0.0,0.0,92,0.00,,,0.03,weatherlink.com 1.10,2013-11-13 11:27:00,
2013-11-13 06:42:00,19.4,18.0,30.61,NNW,329,0.0,0.0,92,0.00,,,0.03,weatherlink.com 1.10,2013-11-13 11:42:00,
2013-11-13 06:57:00,19.3,17.0,30.61,NNW,329,0.0,0.0,92,0.00,,,0.03,weatherlink.com 1.10,2013-11-13 11:57:00,
2013-11-13 07:12:00,19.2,17.0,30.61,NNW,329,0.0,0.0,92,0.00,,,0.00,weatherlink.com 1.10,2013-11-13 12:12:00,
2013-11-13 07:27:00,19.6,18.0,30.61,NNW,329,0.0,0.0,92,0.00,,,0.00,weatherlink.com 1.10,2013-11-13 12:27:00,
2013-11-13 07:42:00,20.0,18.0,30.62,NNW,329,0.0,0.0,92,0.00,,,0.00,weatherlink.com 1.10,2013-11-13 12:42:00,
2013-11-13 07:57:00,20.8,19.0,30.62,NW,323,1.0,3.0,93,0.00,,,0.00,weatherlink.com 1.10,2013-11-13 12:57:00,
2013-11-13 08:12:00,22.0,20.0,30.61,NW,323,0.0,2.0,93,0.00,,,0.00,weatherlink.com 1.10,2013-11-13 13:12:00,
2013-11-13 08:27:00,23.1,21.0,30.62,WSW,252,0.0,5.0,93,0.00,,,0.00,weatherlink.com 1.10,2013-11-13 13:27:00,
2013-11-13 08:42:00,23.9,22.0,30.62,SW,236,0.0,4.0,92,0.00,,,0.00,weatherlink.com 1.10,2013-11-13 13:42:00,
2013-11-13 08:57:00,24.6,22.0,30.62,West,281,2.0,6.0,90,0.00,,,0.00,weatherlink.com 1.10,2013-11-13 13:57:00,
2013-11-13 09:12:00,25.2,22.0,30.62,West,259,0.0,6.0,88,0.00,,,0.00,weatherlink.com 1.10,2013-11-13 14:12:00,
2013-11-13 09:27:00,26.1,23.0,30.62,SW,232,0.0,6.0,86,0.00,,,0.00,weatherlink.com 1.10,2013-11-13 14:27:00,
2013-11-13 09:42:00,26.7,22.0,30.62,WNW,288,1.0,7.0,83,0.00,,,0.00,weatherlink.com 1.10,2013-11-13 14:42:00,
2013-11-13 09:57:00,27.6,23.0,30.61,West,281,5.0,7.0,82,0.00,,,0.00,weatherlink.com 1.10,2013-11-13 14:57:00,
2013-11-13 10:12:00,28.6,22.0,30.61,WSW,255,4.0,7.0,77,0.00,,,0.00,weatherlink.com 1.10,2013-11-13 15:12:00,
2013-11-13 10:27:00,29.4,21.0,30.61,West,267,2.0,8.0,72,0.00,,,0.00,weatherlink.com 1.10,2013-11-13 15:27:00,
2013-11-13 10:42:00,29.9,20.0,30.61,West,277,8.0,10.0,68,0.00,,,0.00,weatherlink.com 1.10,2013-11-13 15:42:00,
2013-11-13 10:57:00,30.7,21.0,30.61,SSW,195,5.0,12.0,68,0.00,,,0.00,weatherlink.com 1.10,2013-11-13 15:57:00,
2013-11-13 11:12:00,31.4,21.0,30.61,WNW,294,4.0,9.0,65,0.00,,,0.00,weatherlink.com 1.10,2013-11-13 16:12:00,
2013-11-13 11:27:00,32.4,20.0,30.60,West,273,8.0,10.0,61,0.00,,,0.00,weatherlink.com 1.10,2013-11-13 16:27:00,
2013-11-13 11:43:00,32.7,21.0,30.59,SW,227,4.0,10.0,62,0.00,,,0.00,weatherlink.com 1.10,2013-11-13 16:43:00,
2013-11-13 11:58:00,33.2,21.0,30.58,WNW,290,3.0,11.0,61,0.00,,,0.00,weatherlink.com 1.10,2013-11-13 16:58:00,
2013-11-13 12:13:00,33.2,21.0,30.57,SW,227,5.0,10.0,60,0.00,,,0.00,weatherlink.com 1.10,2013-11-13 17:13:00,
2013-11-13 12:28:00,33.6,20.0,30.56,WNW,294,3.0,14.0,57,0.00,,,0.00,weatherlink.com 1.10,2013-11-13 17:28:00,
2013-11-13 12:43:00,34.6,20.0,30.55,West,271,1.0,11.0,55,0.00,,,0.00,weatherlink.com 1.10,2013-11-13 17:43:00,
2013-11-13 12:58:00,35.2,19.0,30.55,West,269,5.0,10.0,53,0.01,,,0.01,weatherlink.com 1.10,2013-11-13 17:58:00,
2013-11-13 13:13:00,36.1,22.0,30.55,WSW,252,4.0,7.0,56,0.01,,,0.01,weatherlink.com 1.10,2013-11-13 18:13:00,
2013-11-13 13:28:00,36.2,20.0,30.54,SSW,211,0.0,9.0,53,0.01,,,0.01,weatherlink.com 1.10,2013-11-13 18:28:00,
2013-11-13 13:43:00,36.6,21.0,30.54,WSW,244,4.0,10.0,53,0.01,,,0.01,weatherlink.com 1.10,2013-11-13 18:43:00,
2013-11-13 13:58:00,37.1,21.0,30.53,West,264,7.0,12.0,53,0.00,,,0.01,weatherlink.com 1.10,2013-11-13 18:58:00,
2013-11-13 14:13:00,37.5,21.0,30.53,SW,228,4.0,12.0,52,0.00,,,0.01,weatherlink.com 1.10,2013-11-13 19:13:00,
2013-11-13 14:28:00,38.0,21.0,30.52,West,279,3.0,10.0,51,0.00,,,0.01,weatherlink.com 1.10,2013-11-13 19:28:00,
2013-11-13 14:43:00,38.0,22.0,30.52,SW,227,8.0,10.0,52,0.00,,,0.01,weatherlink.com 1.10,2013-11-13 19:43:00,
2013-11-13 14:58:00,37.9,21.0,30.51,SW,232,4.0,10.0,50,0.00,,,0.01,weatherlink.com 1.10,2013-11-13 19:58:00,
2013-11-13 15:13:00,38.4,20.0,30.51,SW,229,1.0,11.0,48,0.00,,,0.01,weatherlink.com 1.10,2013-11-13 20:13:00,
2013-11-13 15:28:00,38.3,20.0,30.50,West,264,3.0,10.0,47,0.00,,,0.01,weatherlink.com 1.10,2013-11-13 20:28:00,
2013-11-13 15:43:00,38.5,19.0,30.50,SW,228,0.0,8.0,46,0.00,,,0.01,weatherlink.com 1.10,2013-11-13 20:43:00,
2013-11-13 15:58:00,38.4,20.0,30.49,West,261,2.0,12.0,48,0.00,,,0.01,weatherlink.com 1.10,2013-11-13 20:58:00,
2013-11-13 16:13:00,37.9,20.0,30.49,WSW,238,4.0,12.0,48,0.00,,,0.01,weatherlink.com 1.10,2013-11-13 21:13:00,
2013-11-13 16:28:00,37.4,20.0,30.48,WSW,239,3.0,10.0,49,0.00,,,0.01,weatherlink.com 1.10,2013-11-13 21:28:00,
2013-11-13 16:43:00,36.9,19.0,30.48,SW,235,4.0,10.0,49,0.00,,,0.01,weatherlink.com 1.10,2013-11-13 21:43:00,
2013-11-13 16:58:00,36.5,19.0,30.48,West,279,0.0,7.0,50,0.00,,,0.01,weatherlink.com 1.10,2013-11-13 21:58:00,
2013-11-13 17:13:00,35.9,21.0,30.47,SW,225,0.0,2.0,54,0.00,,,0.01,weatherlink.com 1.10,2013-11-13 22:13:00,
2013-11-13 17:28:00,34.9,21.0,30.47,WSW,248,0.0,2.0,57,0.00,,,0.01,weatherlink.com 1.10,2013-11-13 22:28:00,
2013-11-13 17:43:00,34.1,21.0,30.46,SW,225,0.0,1.0,58,0.00,,,0.01,weatherlink.com 1.10,2013-11-13 22:43:00,
2013-11-13 17:58:00,33.4,21.0,30.47,SW,225,0.0,0.0,60,0.00,,,0.01,weatherlink.com 1.10,2013-11-13 22:58:00,
2013-11-13 18:13:00,32.7,21.0,30.46,SW,225,0.0,3.0,62,0.00,,,0.01,weatherlink.com 1.10,2013-11-13 23:13:00,
2013-11-13 18:28:00,32.6,20.0,30.46,SW,222,0.0,3.0,61,0.00,,,0.01,weatherlink.com 1.10,2013-11-13 23:28:00,
2013-11-13 18:43:00,32.3,21.0,30.46,SW,222,0.0,2.0,64,0.00,,,0.01,weatherlink.com 1.10,2013-11-13 23:43:00,
2013-11-13 18:58:00,31.9,21.0,30.45,SW,221,0.0,3.0,65,0.00,,,0.01,weatherlink.com 1.10,2013-11-13 23:58:00,
2013-11-13 19:13:00,32.0,21.0,30.45,SW,220,0.0,2.0,64,0.00,,,0.01,weatherlink.com 1.10,2013-11-14 00:13:00,
2013-11-13 19:28:00,32.0,21.0,30.44,SW,221,0.0,3.0,64,0.00,,,0.01,weatherlink.com 1.10,2013-11-14 00:28:00,
2013-11-13 19:43:00,31.8,21.0,30.44,SW,220,0.0,2.0,65,0.00,,,0.01,weatherlink.com 1.10,2013-11-14 00:43:00,
2013-11-13 19:58:00,31.9,21.0,30.44,SW,216,0.0,3.0,65,0.00,,,0.01,weatherlink.com 1.10,2013-11-14 00:58:00,
2013-11-13 20:13:00,32.1,21.0,30.43,SSW,203,1.0,3.0,63,0.00,,,0.01,weatherlink.com 1.10,2013-11-14 01:13:00,
2013-11-13 20:28:00,32.0,21.0,30.43,SSW,203,0.0,4.0,65,0.00,,,0.01,weatherlink.com 1.10,2013-11-14 01:28:00,
2013-11-13 20:44:00,31.9,21.0,30.42,SSW,203,0.0,3.0,65,0.00,,,0.01,weatherlink.com 1.10,2013-11-14 01:44:00,
2013-11-13 20:59:00,31.7,21.0,30.42,SSW,194,2.0,5.0,65,0.00,,,0.01,weatherlink.com 1.10,2013-11-14 01:59:00,
2013-11-13 21:14:00,32.2,21.0,30.42,SSW,208,0.0,6.0,64,0.00,,,0.01,weatherlink.com 1.10,2013-11-14 02:14:00,
2013-11-13 21:29:00,32.6,22.0,30.42,SSW,207,2.0,5.0,64,0.00,,,0.01,weatherlink.com 1.10,2013-11-14 02:29:00,
2013-11-13 21:44:00,32.7,22.0,30.41,WSW,237,6.0,10.0,64,0.00,,,0.01,weatherlink.com 1.10,2013-11-14 02:44:00,
2013-11-13 21:59:00,32.4,22.0,30.41,SSW,194,5.0,6.0,65,0.00,,,0.01,weatherlink.com 1.10,2013-11-14 02:59:00,
2013-11-13 22:14:00,32.2,22.0,30.41,South,184,0.0,7.0,65,0.00,,,0.01,weatherlink.com 1.10,2013-11-14 03:14:00,
2013-11-13 22:29:00,32.2,22.0,30.41,South,191,0.0,12.0,65,0.00,,,0.01,weatherlink.com 1.10,2013-11-14 03:29:00,
2013-11-13 22:44:00,32.1,22.0,30.40,South,171,0.0,7.0,66,0.00,,,0.01,weatherlink.com 1.10,2013-11-14 03:44:00,
2013-11-13 22:59:00,32.1,22.0,30.40,SSE,159,3.0,10.0,66,0.00,,,0.01,weatherlink.com 1.10,2013-11-14 03:59:00,
2013-11-13 23:14:00,32.1,22.0,30.40,SSW,211,0.0,8.0,67,0.00,,,0.01,weatherlink.com 1.10,2013-11-14 04:14:00,
2013-11-13 23:29:00,32.2,22.0,30.39,SSW,209,0.0,7.0,66,0.00,,,0.01,weatherlink.com 1.10,2013-11-14 04:29:00,
2013-11-13 23:44:00,32.0,22.0,30.39,SW,224,2.0,7.0,67,0.00,,,0.01,weatherlink.com 1.10,2013-11-14 04:44:00,
2013-11-13 23:59:00,31.8,22.0,30.39,SSW,209,0.0,8.0,68,0.00,,,0.01,weatherlink.com 1.10,2013-11-14 04:59:00,